| time (UTC) | temp F | wind direction | speed MPH | gust MPH | rain 1hr in | rain 24hr in | rain mn in | humidity % | barometer mb |
| 20260904184037 | 54 | 0.0 | 0.0 | 0.00 | 0.06 | 0.03 | 95 | 995.9 | |
| 20260904183101 | 54 | 0.0 | 0.0 | 0.00 | 0.06 | 0.03 | 93 | 996.1 | |
| 20260904182125 | 54 | 0.0 | 0.0 | 0.00 | 0.06 | 0.03 | 91 | 996.0 | |
| 20260904181037 | 55 | 0.0 | 0.0 | 0.00 | 0.06 | 0.03 | 92 | 995.9 | |
| 20260904180101 | 55 | 322 | 0.0 | 1.0 | 0.00 | 0.06 | 0.03 | 90 | 995.7 |
| 20260904175145 | 56 | 0.0 | 0.0 | 0.00 | 0.06 | 0.03 | 90 | 995.8 | |
| 20260904174037 | 56 | 0.0 | 0.0 | 0.00 | 0.06 | 0.03 | 89 | 995.9 | |
| 20260904173121 | 56 | 87 | 1.0 | 3.0 | 0.00 | 0.06 | 0.03 | 88 | 995.8 |
| 20260904172125 | 56 | 335 | 1.0 | 2.0 | 0.00 | 0.06 | 0.03 | 88 | 995.9 |
| 20260904171037 | 56 | 354 | 0.0 | 2.0 | 0.00 | 0.06 | 0.03 | 88 | 995.8 |
| 20260904170101 | 57 | 13 | 1.0 | 2.0 | 0.00 | 0.06 | 0.03 | 88 | 995.9 |
| 20260904165125 | 57 | 348 | 3.0 | 6.0 | 0.00 | 0.06 | 0.03 | 87 | 995.9 |
| 20260904164037 | 57 | 355 | 2.0 | 3.0 | 0.00 | 0.06 | 0.03 | 86 | 995.9 |
| 20260904163101 | 57 | 347 | 3.0 | 4.0 | 0.00 | 0.06 | 0.03 | 87 | 995.9 |
| 20260904162125 | 57 | 342 | 0.0 | 2.0 | 0.00 | 0.06 | 0.03 | 88 | 995.8 |
| 20260904161037 | 58 | 346 | 3.0 | 4.0 | 0.00 | 0.06 | 0.03 | 85 | 996.0 |
| 20260904155125 | 57 | 354 | 2.0 | 4.0 | 0.00 | 0.06 | 0.03 | 86 | 996.0 |
| 20260904154037 | 57 | 1 | 2.0 | 4.0 | 0.00 | 0.06 | 0.03 | 88 | 996.0 |
| 20260904153101 | 57 | 313 | 3.0 | 5.0 | 0.00 | 0.06 | 0.03 | 86 | 996.1 |
| 20260904152125 | 56 | 320 | 3.0 | 5.0 | 0.00 | 0.06 | 0.03 | 87 | 996.1 |
| 20260904151037 | 56 | 353 | 2.0 | 3.0 | 0.00 | 0.06 | 0.03 | 88 | 996.3 |
| 20260904145125 | 57 | 349 | 1.0 | 2.0 | 0.00 | 0.06 | 0.03 | 86 | 996.4 |
| 20260904144037 | 58 | 345 | 4.0 | 7.0 | 0.00 | 0.06 | 0.03 | 83 | 996.2 |
| 20260904143101 | 60 | 354 | 4.0 | 7.0 | 0.00 | 0.06 | 0.03 | 79 | 996.4 |
| 20260904142125 | 59 | 343 | 1.0 | 1.0 | 0.00 | 0.06 | 0.03 | 81 | 996.4 |
| 20260904141037 | 58 | 11 | 2.0 | 5.0 | 0.00 | 0.06 | 0.03 | 83 | 996.6 |
| 20260904140101 | 58 | 356 | 3.0 | 5.0 | 0.00 | 0.06 | 0.03 | 84 | 996.4 |
| 20260904135125 | 58 | 335 | 2.0 | 5.0 | 0.00 | 0.06 | 0.03 | 84 | 996.5 |
| 20260904134037 | 59 | 15 | 2.0 | 3.0 | 0.00 | 0.06 | 0.03 | 83 | 996.6 |
| 20260904133101 | 59 | 23 | 3.0 | 4.0 | 0.00 | 0.06 | 0.03 | 82 | 996.8 |
| 20260904132125 | 59 | 12 | 3.0 | 8.0 | 0.00 | 0.06 | 0.03 | 80 | 996.8 |
| 20260904131037 | 59 | 356 | 3.0 | 5.0 | 0.00 | 0.06 | 0.03 | 81 | 997.1 |
| 20260904130101 | 59 | 324 | 2.0 | 4.0 | 0.00 | 0.06 | 0.03 | 81 | 997.2 |
| 20260904125125 | 59 | 358 | 3.0 | 4.0 | 0.00 | 0.06 | 0.03 | 81 | 996.8 |
| 20260904124037 | 58 | 337 | 2.0 | 6.0 | 0.00 | 0.06 | 0.03 | 82 | 996.8 |
| 20260904123101 | 58 | 6 | 2.0 | 3.0 | 0.00 | 0.06 | 0.03 | 83 | 997.1 |
| 20260904122124 | 58 | 291 | 1.0 | 3.0 | 0.00 | 0.06 | 0.03 | 83 | 997.3 |
| 20260904121037 | 59 | 346 | 2.0 | 2.0 | 0.00 | 0.06 | 0.03 | 81 | 997.3 |
| 20260904120100 | 60 | 24 | 3.0 | 4.0 | 0.00 | 0.06 | 0.03 | 79 | 997.3 |
| 20260904115205 | 60 | 44 | 1.0 | 3.0 | 0.00 | 0.06 | 0.03 | 80 | 997.4 |
| 20260904114036 | 60 | 9 | 3.0 | 4.0 | 0.00 | 0.06 | 0.03 | 80 | 997.5 |
| 20260904113100 | 58 | 18 | 1.0 | 4.0 | 0.00 | 0.06 | 0.03 | 82 | 997.5 |
| 20260904112124 | 59 | 104 | 2.0 | 4.0 | 0.00 | 0.06 | 0.03 | 81 | 997.7 |
| 20260904111036 | 60 | 98 | 2.0 | 3.0 | 0.00 | 0.06 | 0.03 | 80 | 997.4 |
| 20260904110059 | 59 | 18 | 2.0 | 4.0 | 0.00 | 0.06 | 0.03 | 80 | 997.7 |
| 20260904105126 | 60 | 101 | 1.0 | 3.0 | 0.00 | 0.06 | 0.03 | 79 | 997.8 |
| 20260904104039 | 59 | 63 | 1.0 | 1.0 | 0.00 | 0.06 | 0.03 | 82 | 997.9 |
| 20260904103103 | 58 | 91 | 1.0 | 2.0 | 0.00 | 0.06 | 0.03 | 83 | 997.7 |
| 20260904102127 | 57 | 74 | 2.0 | 3.0 | 0.00 | 0.06 | 0.03 | 85 | 997.8 |
| 20260904101038 | 57 | 66 | 0.0 | 1.0 | 0.00 | 0.06 | 0.03 | 84 | 997.9 |
| 20260904095146 | 58 | 86 | 2.0 | 2.0 | 0.00 | 0.06 | 0.03 | 81 | 998.1 |
| 20260904094038 | 58 | 90 | 2.0 | 3.0 | 0.00 | 0.06 | 0.03 | 84 | 998.2 |
| 20260904093102 | 56 | 62 | 0.0 | 1.0 | 0.00 | 0.06 | 0.03 | 87 | 998.3 |
| 20260904092146 | 56 | 103 | 1.0 | 2.0 | 0.00 | 0.06 | 0.03 | 87 | 998.5 |
| 20260904091038 | 57 | 98 | 2.0 | 3.0 | 0.00 | 0.06 | 0.03 | 85 | 998.2 |
| 20260904085125 | 56 | 93 | 1.0 | 2.0 | 0.00 | 0.06 | 0.03 | 88 | 998.5 |
| 20260904084038 | 55 | 0.0 | 0.0 | 0.00 | 0.06 | 0.03 | 90 | 998.3 | |
| 20260904083102 | 55 | 0.0 | 0.0 | 0.00 | 0.06 | 0.03 | 89 | 998.6 | |
| 20260904082125 | 55 | 14 | 0.0 | 1.0 | 0.00 | 0.06 | 0.03 | 89 | 998.5 |
| 20260904081037 | 55 | 30 | 1.0 | 2.0 | 0.00 | 0.06 | 0.03 | 90 | 998.4 |
| 20260904075126 | 54 | 0.0 | 0.0 | 0.00 | 0.06 | 0.03 | 93 | 998.6 | |
| 20260904074038 | 54 | 0.0 | 0.0 | 0.00 | 0.06 | 0.03 | 95 | 998.6 | |
| 20260904073102 | 54 | 62 | 0.0 | 1.0 | 0.00 | 0.06 | 0.03 | 94 | 998.7 |
| 20260904072145 | 54 | 0.0 | 0.0 | 0.00 | 0.08 | 0.03 | 94 | 998.8 | |
| 20260904071057 | 54 | 0.0 | 0.0 | 0.00 | 0.11 | 0.03 | 93 | 998.8 | |
| 20260904070122 | 53 | 150 | 0.0 | 1.0 | 0.00 | 0.12 | 0.03 | 95 | 998.7 |
| 20260904065125 | 52 | 0.0 | 0.0 | 0.00 | 0.12 | 0.03 | 99 | 998.6 | |
| 20260904064037 | 52 | 0.0 | 0.0 | 0.00 | 0.12 | 0.03 | 99 | 998.9 | |
| 20260904063101 | 52 | 0.0 | 0.0 | 0.00 | 0.12 | 0.03 | 99 | 998.8 | |
| 20260904062125 | 52 | 0.0 | 0.0 | 0.00 | 0.12 | 0.03 | 99 | 998.9 | |
| 20260904061037 | 51 | 0.0 | 0.0 | 0.00 | 0.12 | 0.03 | 99 | 998.9 | |
| 20260904055125 | 51 | 0.0 | 0.0 | 0.00 | 0.12 | 0.03 | 99 | 999.1 | |
| 20260904054037 | 51 | 0.0 | 0.0 | 0.00 | 0.12 | 0.03 | 99 | 999.0 | |
| 20260904053101 | 51 | 0.0 | 0.0 | 0.00 | 0.12 | 0.03 | 99 | 999.1 | |
| 20260904052125 | 51 | 0.0 | 0.0 | 0.00 | 0.12 | 0.03 | 99 | 999.4 | |
| 20260904051037 | 51 | 0.0 | 0.0 | 0.00 | 0.13 | 0.03 | 99 | 999.4 | |
| 20260904050101 | 51 | 0.0 | 0.0 | 0.00 | 0.13 | 0.03 | 99 | 999.2 | |
| 20260904045125 | 51 | 0.0 | 0.0 | 0.00 | 0.13 | 0.03 | 99 | 999.5 | |
| 20260904044037 | 51 | 0.0 | 0.0 | 0.00 | 0.14 | 0.03 | 99 | 999.4 | |
| 20260904043101 | 50 | 0.0 | 0.0 | 0.00 | 0.14 | 0.03 | 99 | 999.3 | |
| 20260904042124 | 51 | 0.0 | 0.0 | 0.00 | 0.15 | 0.03 | 99 | 999.3 | |
| 20260904041037 | 51 | 0.0 | 0.0 | 0.00 | 0.17 | 0.03 | 99 | 999.5 | |
| 20260904035124 | 51 | 0.0 | 0.0 | 0.00 | 0.19 | 0.03 | 99 | 999.4 | |
| 20260904034036 | 51 | 0.0 | 0.0 | 0.00 | 0.20 | 0.03 | 99 | 999.6 | |
| 20260904033100 | 51 | 0.0 | 0.0 | 0.00 | 0.22 | 0.03 | 99 | 999.5 | |
| 20260904032124 | 51 | 0.0 | 0.0 | 0.00 | 0.24 | 0.03 | 99 | 999.6 | |
| 20260904031037 | 51 | 0.0 | 0.0 | 0.00 | 0.28 | 0.03 | 99 | 999.6 | |
| 20260904030100 | 51 | 0.0 | 0.0 | 0.00 | 0.31 | 0.03 | 99 | 999.7 | |
| 20260904025124 | 51 | 0.0 | 0.0 | 0.00 | 0.34 | 0.03 | 99 | 1000.1 | |
| 20260904024036 | 51 | 0.0 | 0.0 | 0.00 | 0.36 | 0.03 | 99 | 999.9 | |
| 20260904023100 | 51 | 0.0 | 0.0 | 0.00 | 0.38 | 0.03 | 99 | 1000.1 | |
| 20260904022123 | 51 | 0.0 | 0.0 | 0.00 | 0.40 | 0.03 | 99 | 1000.2 | |
| 20260904021035 | 52 | 0.0 | 0.0 | 0.00 | 0.41 | 0.03 | 99 | 1000.0 | |
| 20260904020059 | 52 | 0.0 | 0.0 | 0.00 | 0.43 | 0.03 | 99 | 1000.4 | |
| 20260904015123 | 52 | 0.0 | 0.0 | 0.00 | 0.44 | 0.03 | 99 | 1000.3 | |
| 20260904014055 | 52 | 0.0 | 0.0 | 0.00 | 0.46 | 0.03 | 99 | 1000.3 | |
| 20260904013059 | 52 | 0.0 | 0.0 | 0.00 | 0.47 | 0.03 | 99 | 1000.4 | |
| 20260904012123 | 52 | 0.0 | 0.0 | 0.00 | 0.48 | 0.03 | 99 | 1000.5 | |
| 20260904011035 | 52 | 0.0 | 0.0 | 0.00 | 0.50 | 0.03 | 99 | 1000.4 | |
| 20260904010059 | 52 | 0.0 | 0.0 | 0.01 | 0.51 | 0.03 | 99 | 1000.5 | |
| 20260904005123 | 52 | 0.0 | 0.0 | 0.01 | 0.53 | 0.03 | 99 | 1000.7 | |
| 20260904004055 | 52 | 158 | 1.0 | 2.0 | 0.01 | 0.54 | 0.03 | 99 | 1000.9 |
| 20260904003059 | 52 | 0.0 | 0.0 | 0.01 | 0.54 | 0.03 | 99 | 1000.9 | |
| 20260904002123 | 52 | 0.0 | 0.0 | 0.01 | 0.54 | 0.03 | 99 | 1001.0 | |
| 20260904001035 | 52 | 0.0 | 0.0 | 0.00 | 0.53 | 0.02 | 99 | 1001.0 | |
| 20260904000059 | 52 | 0.0 | 0.0 | 0.02 | 0.54 | 0.02 | 99 | 1001.1 | |
| 20260903235123 | 52 | 0.0 | 0.0 | 0.02 | 0.54 | 0.02 | 99 | 1001.0 | |
| 20260903234036 | 52 | 0.0 | 0.0 | 0.02 | 0.54 | 0.02 | 99 | 1001.2 | |
| 20260903233059 | 52 | 0.0 | 0.0 | 0.01 | 0.53 | 0.01 | 99 | 1001.2 | |
| 20260903232123 | 52 | 153 | 1.0 | 2.0 | 0.01 | 0.53 | 0.01 | 99 | 1001.2 |
| 20260903231035 | 52 | 0.0 | 0.0 | 0.01 | 0.53 | 0.01 | 99 | 1001.2 | |
| 20260903230100 | 52 | 0.0 | 0.0 | 0.02 | 0.52 | 0.52 | 99 | 1001.3 | |
| 20260903225123 | 52 | 0.0 | 0.0 | 0.02 | 0.52 | 0.52 | 99 | 1001.4 | |
| 20260903224035 | 52 | 0.0 | 0.0 | 0.01 | 0.51 | 0.51 | 99 | 1001.2 | |
| 20260903223059 | 52 | 0.0 | 0.0 | 0.01 | 0.51 | 0.51 | 99 | 1001.4 | |
| 20260903222123 | 52 | 0.0 | 0.0 | 0.01 | 0.51 | 0.51 | 99 | 1001.4 | |
| 20260903221036 | 52 | 0.0 | 0.0 | 0.01 | 0.51 | 0.51 | 99 | 1001.4 | |
| 20260903220059 | 52 | 0.0 | 0.0 | 0.00 | 0.50 | 0.50 | 99 | 1001.3 | |
| 20260903215143 | 52 | 0.0 | 0.0 | 0.00 | 0.50 | 0.50 | 98 | 1001.5 | |
| 20260903214035 | 52 | 0.0 | 0.0 | 0.00 | 0.50 | 0.50 | 98 | 1001.3 | |
| 20260903213120 | 53 | 0.0 | 0.0 | 0.00 | 0.50 | 0.50 | 98 | 1001.5 | |
| 20260903212122 | 52 | 0.0 | 0.0 | 0.00 | 0.50 | 0.50 | 98 | 1001.3 | |
| 20260903211035 | 53 | 0.0 | 0.0 | 0.00 | 0.50 | 0.50 | 98 | 1001.4 | |
| 20260903210138 | 53 | 0.0 | 0.0 | 0.00 | 0.50 | 0.50 | 98 | 1001.4 | |
| 20260903205123 | 53 | 0.0 | 0.0 | 0.00 | 0.50 | 0.50 | 98 | 1001.4 | |
| 20260903204035 | 53 | 0.0 | 0.0 | 0.00 | 0.50 | 0.50 | 98 | 1001.5 | |
| 20260903203059 | 53 | 0.0 | 0.0 | 0.00 | 0.50 | 0.50 | 98 | 1001.6 | |
| 20260903202143 | 53 | 0.0 | 0.0 | 0.00 | 0.50 | 0.50 | 97 | 1001.6 | |
| 20260903201034 | 53 | 0.0 | 0.0 | 0.00 | 0.50 | 0.50 | 97 | 1001.8 | |
| 20260903200059 | 53 | 0.0 | 0.0 | 0.01 | 0.50 | 0.50 | 97 | 1001.5 | |
| 20260903195123 | 53 | 0.0 | 0.0 | 0.01 | 0.50 | 0.50 | 96 | 1001.6 | |
| 20260903194035 | 53 | 0.0 | 0.0 | 0.00 | 0.49 | 0.49 | 96 | 1001.8 | |
| 20260903193059 | 53 | 0.0 | 0.0 | 0.00 | 0.49 | 0.49 | 96 | 1001.7 | |
| 20260903192122 | 53 | 348 | 1.0 | 3.0 | 0.00 | 0.49 | 0.49 | 96 | 1001.8 |
| 20260903191055 | 53 | 0.0 | 0.0 | 0.00 | 0.49 | 0.49 | 96 | 1001.9 | |
| 20260903190059 | 53 | 0.0 | 0.0 | 0.00 | 0.49 | 0.49 | 96 | 1001.8 | |
| 20260903185123 | 53 | 0.0 | 0.0 | 0.00 | 0.49 | 0.49 | 97 | 1001.7 |